Time,TemperatureF,DewpointF,PressureIn,WindDirection,WindDirectionDegrees,WindSpeedMPH,WindSpeedGustMPH,Humidity,HourlyPrecipIn,Conditions,Clouds,dailyrainin,SoftwareType,DateUTC
2013-06-15 00:10:00,54.0,43.0,-100.00,NW,315,5.0,10.0,66,-99.99,,,-99.99,,2013-06-15 07:10:00,
2013-06-15 01:02:00,54.0,43.0,-100.00,NW,315,5.0,10.0,66,-99.99,,,-99.99,,2013-06-15 08:02:00,
2013-06-15 02:10:00,51.0,42.0,-100.00,North,350,7.0,12.0,71,-99.99,,,-99.99,,2013-06-15 09:10:00,
2013-06-15 02:12:00,53.0,43.0,-100.00,NNW,345,3.0,12.0,68,-99.99,,,-99.99,,2013-06-15 09:12:00,
2013-06-15 03:02:00,51.0,42.0,-100.00,North,350,7.0,12.0,71,-99.99,,,-99.99,,2013-06-15 10:02:00,
2013-06-15 04:01:00,49.0,42.0,-100.00,NNW,335,5.0,10.0,76,-99.99,,,-99.99,,2013-06-15 11:01:00,
2013-06-15 04:11:00,49.0,42.0,-100.00,NNW,335,5.0,10.0,76,-99.99,,,-99.99,,2013-06-15 11:11:00,
2013-06-15 05:01:00,48.0,42.0,-100.00,NNW,345,5.0,9.0,79,-99.99,,,-99.99,,2013-06-15 12:01:00,
2013-06-15 05:10:00,46.0,42.0,-100.00,North,360,3.0,6.0,85,-99.99,,,-99.99,,2013-06-15 12:10:00,
2013-06-15 07:10:00,51.0,44.0,-100.00,North,360,2.0,6.0,76,-99.99,,,-99.99,,2013-06-15 14:10:00,
2013-06-15 07:12:00,47.0,42.0,-100.00,North,355,2.0,3.0,82,-99.99,,,-99.99,,2013-06-15 14:12:00,
2013-06-15 09:11:00,56.0,45.0,-100.00,North,360,3.0,6.0,66,-99.99,,,-99.99,,2013-06-15 16:11:00,
2013-06-15 09:20:00,62.0,46.0,-100.00,NNE,25,1.0,5.0,55,-99.99,,,-99.99,,2013-06-15 16:20:00,
2013-06-15 10:10:00,68.0,47.0,-100.00,South,170,1.0,3.0,46,-99.99,,,-99.99,,2013-06-15 17:10:00,
2013-06-15 10:11:00,62.0,46.0,-100.00,NNE,25,1.0,5.0,55,-99.99,,,-99.99,,2013-06-15 17:11:00,
2013-06-15 12:01:00,72.0,49.0,-100.00,SSE,155,3.0,7.0,44,-99.99,,,-99.99,,2013-06-15 19:01:00,
2013-06-15 12:11:00,72.0,49.0,-100.00,SSE,155,3.0,7.0,44,-99.99,,,-99.99,,2013-06-15 19:11:00,
2013-06-15 13:02:00,75.0,48.0,-100.00,SE,135,5.0,8.0,38,-99.99,,,-99.99,,2013-06-15 20:02:00,
2013-06-15 13:10:00,78.0,49.0,-100.00,SSE,160,6.0,8.0,36,-99.99,,,-99.99,,2013-06-15 20:10:00,
2013-06-15 14:01:00,78.0,49.0,-100.00,SSE,160,6.0,8.0,36,-99.99,,,-99.99,,2013-06-15 21:01:00,
2013-06-15 15:01:00,83.0,49.0,-100.00,SSE,165,1.0,3.0,30,-99.99,,,-99.99,,2013-06-15 22:01:00,
2013-06-15 15:10:00,82.0,49.0,-100.00,WSW,250,1.0,5.0,31,-99.99,,,-99.99,,2013-06-15 22:10:00,
2013-06-15 15:11:00,83.0,49.0,-100.00,SSE,165,1.0,3.0,30,-99.99,,,-99.99,,2013-06-15 22:11:00,
2013-06-15 16:02:00,82.0,49.0,-100.00,WSW,250,1.0,5.0,31,-99.99,,,-99.99,,2013-06-15 23:02:00,
2013-06-15 17:01:00,82.0,49.0,-100.00,South,185,2.0,3.0,31,-99.99,,,-99.99,,2013-06-16 00:01:00,
2013-06-15 17:11:00,82.0,49.0,-100.00,South,185,2.0,3.0,31,-99.99,,,-99.99,,2013-06-16 00:11:00,
2013-06-15 18:01:00,82.0,51.0,-100.00,NNE,15,1.0,3.0,34,-99.99,,,-99.99,,2013-06-16 01:01:00,
2013-06-15 18:10:00,80.0,52.0,-100.00,NNE,20,1.0,2.0,37,-99.99,,,-99.99,,2013-06-16 01:10:00,
2013-06-15 19:01:00,80.0,52.0,-100.00,NNE,20,1.0,2.0,37,-99.99,,,-99.99,,2013-06-16 02:01:00,
2013-06-15 20:02:00,77.0,56.0,-100.00,WSW,250,1.0,2.0,48,-99.99,,,-99.99,,2013-06-16 03:02:00,
2013-06-15 20:10:00,72.0,58.0,-100.00,West,275,1.0,2.0,61,-99.99,,,-99.99,,2013-06-16 03:10:00,
2013-06-15 20:11:00,77.0,56.0,-100.00,WSW,250,1.0,2.0,48,-99.99,,,-99.99,,2013-06-16 03:11:00,
2013-06-15 21:01:00,72.0,58.0,-100.00,West,275,1.0,2.0,61,-99.99,,,-99.99,,2013-06-16 04:01:00,
2013-06-15 22:01:00,67.0,53.0,-100.00,North,360,2.0,6.0,60,-99.99,,,-99.99,,2013-06-16 05:01:00,
2013-06-15 22:11:00,67.0,53.0,-100.00,North,360,2.0,6.0,60,-99.99,,,-99.99,,2013-06-16 05:11:00,
2013-06-15 23:10:00,65.0,49.0,-100.00,NW,315,6.0,10.0,56,-99.99,,,-99.99,,2013-06-16 06:10:00,